Dewpoint
49 35 43 34 22 23 22 21 17 15 21 26 28 27 28 29 35 35 44 52 52 51 52 55 57 57 57 58 57 57 58 58 58 59 59 60 61 62 63 64 65 67 69 70 69 70 70 71 71
45 34 36 32 20 18 16 15 17 25 27 26 26 27 25 26 37 40 47 51 50 49 50 53 56 55 56 56 55 55 55 56 56 56 56 56 55 57 59 61 63 64 66 68 69 70 70 70 71
32 34 31 29 21 14 14 11 24 26 25 25 24 25 25 26 37 41 43 48 48 48 49 53 55 54 54 54 54 54 54 54 54 54 54 54 53 54 54 55 57 60 62 65 66 67 68 68 70
26 29 22 24 21 21 12 10 20 24 24 22 24 23 25 31 38 39 44 45 45 46 48 52 53 53 53 52 52 52 52 52 52 52 52 52 51 52 52 52 53 55 56 59 61 62 63 65 67
27 26 19 17 13 19 13 9 15 13 20 23 21 22 24 30 37 39 42 43 43 44 45 48 51 51 51 51 50 50 50 50 50 50 50 49 50 50 50 51 51 52 52 54 56 58 58 59 64
18 18 14 14 14 14 10 7 8 8 8 18 21 23 24 33 37 35 38 39 41 41 41 43 49 48 48 48 48 48 48 48 48 49 48 48 47 48 48 48 49 50 51 51 52 52 53 55 56
17 13 8 13 8 11 9 8 7 8 8 9 19 20 27 33 36 32 32 35 36 36 36 38 41 44 45 45 45 45 46 46 46 46 45 45 45 45 45 46 48 50 50 50 50 50 50 52 53
18 17 14 11 10 9 9 8 12 9 7 14 16 19 21 29 34 31 30 30 32 33 34 33 36 40 37 39 42 42 43 43 43 43 43 42 42 43 43 45 46 47 48 48 49 51 50 50 50
16 11 10 8 8 8 8 7 11 14 12 12 18 18 21 29 33 29 28 29 30 33 32 32 33 33 34 35 40 41 42 42 42 40 41 40 38 40 41 43 45 46 46 46 47 47 48 48 47
14 10 9 10 7 6 12 10 9 9 9 11 14 24 30 32 30 29 29 28 29 30 30 32 32 31 31 32 35 35 35 36 35 36 37 39 37 39 39 41 42 44 45 45 46 46 45 44 42
16 10 14 12 15 15 14 12 13 9 8 9 10 22 30 30 30 30 30 29 29 30 31 31 31 31 32 33 34 35 34 36 35 34 36 36 35 37 38 38 38 40 41 40 41 42 41 41 41
16 15 14 20 21 17 14 15 13 12 9 13 13 23 29 29 30 30 30 31 30 30 30 31 31 30 31 33 33 33 34 33 33 34 36 34 35 36 36 36 37 38 39 39 41 41 40 40 41
17 18 22 21 23 19 17 15 15 15 15 16 16 22 28 29 29 30 30 31 31 31 29 30 30 29 29 30 31 31 32 32 32 33 34 35 35 35 35 35 37 37 38 38 39 39 39 40 41
23 22 20 20 19 18 17 16 16 16 16 15 15 15 25 28 29 30 30 30 32 31 30 30 30 28 28 28 28 29 30 31 32 32 33 34 35 34 34 35 36 36 36 37 38 38 39 41 41
23 17 21 22 22 19 18 18 16 18 18 17 16 16 15 25 27 27 29 30 32 30 31 31 30 29 27 28 28 29 30 30 30 31 32 33 34 33 33 34 34 35 36 37 38 39 41 39 39
21 20 19 23 21 21 19 17 19 18 15 14 16 15 14 15 24 25 27 29 31 31 30 31 30 31 29 28 28 28 29 29 30 31 32 32 34 33 32 33 34 35 36 38 37 38 38 39 39
25 20 20 23 21 20 18 17 19 19 20 20 20 20 20 20 25 26 27 32 30 30 30 30 30 31 30 28 29 30 29 30 30 29 30 31 32 32 32 33 33 35 36 36 36 36 37 38 37
22 22 22 20 20 20 18 18 19 20 21 21 20 21 23 24 25 27 30 30 29 27 28 29 30 28 28 30 28 28 28 28 27 28 30 30 31 32 32 32 33 34 33 33 33 34 36 37 37
21 21 19 19 22 21 19 20 21 22 21 20 22 22 23 23 24 25 26 27 27 27 26 26 26 26 27 26 25 25 25 25 26 27 28 29 31 33 30 31 31 33 32 32 32 34 34 36 37
20 18 18 21 23 21 21 22 21 20 20 21 22 22 22 23 23 24 25 24 24 24 24 24 25 25 25 26 25 24 24 25 26 28 28 29 29 31 28 31 31 31 31 31 32 33 34 35 36
19 19 20 20 21 23 22 19 21 20 20 21 22 22 23 22 23 23 23 24 23 22 22 24 24 23 24 23 24 25 25 25 25 26 27 27 28 30 32 30 30 30 31 31 32 32 32 32 34
22 22 21 21 18 17 21 13 20 18 20 22 22 22 21 21 23 23 24 24 23 22 22 23 24 23 23 24 23 22 23 23 24 25 26 27 27 29 30 30 29 29 30 29 30 29 30 31 30
23 23 21 21 20 16 19 11 18 17 15 16 19 20 22 23 21 21 23 24 23 23 23 23 23 23 23 23 23 23 23 24 25 25 25 25 27 28 28 29 29 29 30 29 30 30 30 30 32
25 25 24 23 21 14 15 16 17 17 18 18 19 22 21 23 25 23 22 23 24 23 23 23 22 22 23 24 24 23 23 23 23 24 24 25 26 27 27 28 28 28 27 28 29 29 28 30 31
26 23 9 9 10 7 18 17 20 20 21 21 19 22 24 26 23 22 22 23 23 23 23 23 22 21 22 23 23 24 24 24 24 24 24 25 25 25 26 28 28 28 28 28 29 29 29 29 29
25 21 14 -0 8 10 17 9 17 20 17 15 19 19 24 25 26 25 24 23 21 21 21 20 21 21 23 22 23 23 23 23 24 25 25 25 23 26 28 28 28 27 27 28 29 30 30 29 29
24 21 22 13 9 11 12 15 19 22 19 18 19 24 25 25 25 25 24 22 22 21 20 21 21 21 23 23 22 22 23 24 24 24 26 27 27 27 28 28 28 28 29 29 30 29 28 28 28
25 24 17 12 1 4 9 11 15 17 14 19 17 21 23 24 23 23 23 23 22 21 21 21 22 18 18 21 21 22 21 22 22 27 26 26 27 27 27 27 27 28 28 28 28 27 28 28 28
25 21 21 18 12 5 3 9 11 15 16 15 18 23 21 21 21 21 21 21 16 15 15 16 15 12 15 17 18 20 20 20 23 25 26 26 26 27 26 27 27 27 27 28 28 27 27 26 26
23 18 19 10 5 9 8 11 10 16 14 14 20 24 21 21 20 19 19 15 13 14 13 13 10 8 14 14 16 18 18 18 24 24 25 25 26 27 26 27 27 27 28 27 25 26 27 26 25
Lifted_Index
12 11 9 8 7 5 5 6 7 7 7 7 7 7 7 6 5 4 4 5 5 5 5 5 5 5 4 4 4 4 3 3 3 2 2 1 1 1 1 1 1 -0 -1 -2 -3 -3 -3 -3 -4
12 11 9 8 6 5 5 6 7 7 7 7 7 7 7 6 5 5 5 6 6 6 6 6 7 7 6 6 6 6 6 6 6 5 5 4 3 3 2 1 1 0 -1 -1 -2 -2 -3 -3 -3
11 10 9 7 5 5 5 7 7 7 7 7 7 7 7 7 6 6 6 6 7 7 7 8 8 8 8 9 9 9 9 9 9 9 9 8 8 7 6 4 2 1 0 -0 -1 -1 -2 -2 -3
11 10 9 6 5 6 7 8 8 8 8 8 8 7 8 8 8 7 7 7 7 8 9 9 9 9 10 10 10 10 10 10 11 11 11 11 11 11 10 9 7 5 3 1 -0 -0 -1 -2 -2
11 10 7 5 5 7 8 8 8 8 8 8 8 8 8 8 8 8 8 8 8 8 9 10 10 10 10 11 11 11 11 12 12 12 12 12 12 12 12 12 11 9 7 4 1 0 -0 -1 -1
10 8 6 5 5 7 8 9 8 8 8 8 8 8 8 9 9 9 9 9 9 8 9 11 11 11 11 11 11 12 13 13 13 13 13 13 14 14 14 14 13 12 11 9 5 3 1 0 -0
8 7 5 5 5 6 8 8 8 8 8 9 9 8 8 9 10 10 10 10 10 9 9 10 11 11 11 11 12 13 14 14 14 14 14 15 15 15 15 15 14 13 13 12 10 7 4 2 1
9 7 5 5 5 6 7 8 9 9 9 9 9 9 9 10 10 11 11 11 10 10 10 10 11 11 12 12 13 14 14 14 15 15 15 15 15 16 16 16 15 15 14 14 13 11 9 6 4
9 7 6 6 6 6 7 8 8 9 8 9 9 10 10 10 11 11 10 11 11 11 11 11 11 12 13 13 14 15 15 15 15 15 15 16 16 16 16 16 15 15 15 15 14 14 13 12 11
7 6 6 6 6 7 7 7 8 8 7 8 9 10 11 11 11 11 10 11 11 12 12 12 12 13 13 14 15 15 15 15 15 15 16 16 16 16 16 15 15 15 15 15 15 15 15 15 15
6 6 6 7 7 7 7 7 7 7 6 7 9 10 11 11 11 11 11 11 12 12 13 13 13 14 14 14 15 15 15 15 15 15 15 16 16 15 15 15 15 15 15 15 15 15 15 15 15
6 6 7 7 7 7 7 7 7 6 7 8 10 11 11 11 11 11 11 12 12 13 13 13 14 14 14 14 15 15 15 15 15 15 15 15 15 15 15 15 15 15 16 15 15 15 15 15 15
6 7 7 7 7 7 7 7 7 7 7 8 9 10 11 11 11 11 12 12 12 13 13 13 13 13 14 14 14 14 14 14 15 15 15 15 15 15 15 15 15 16 16 16 16 16 16 15 15
7 7 7 7 7 7 7 7 7 7 7 8 8 9 10 10 11 11 12 12 12 13 13 13 13 13 13 14 14 14 14 15 15 15 15 15 15 15 15 15 15 16 16 17 16 16 16 16 16
7 6 6 7 7 8 7 6 7 7 8 8 8 9 9 10 11 11 12 12 12 12 12 12 12 12 13 13 14 14 15 15 15 15 15 15 15 15 15 16 16 17 17 17 17 17 17 16 16
6 6 5 6 7 7 7 6 6 8 8 8 8 8 9 10 10 11 11 12 12 12 12 12 12 12 13 13 14 14 15 15 15 15 16 16 16 16 16 16 17 17 17 17 17 17 16 16 16
5 5 5 6 7 7 6 6 7 8 8 8 8 8 8 9 10 10 11 11 11 11 11 11 12 12 13 13 14 15 15 15 16 16 16 16 17 17 17 17 17 17 17 17 17 17 16 16 16
5 4 5 5 6 7 6 6 7 8 8 8 7 7 8 8 9 10 11 11 11 11 11 11 12 12 13 13 14 14 15 15 16 16 17 17 17 17 17 17 17 17 17 17 16 16 16 16 15
5 5 5 6 7 7 6 6 7 7 7 7 7 7 8 8 9 10 10 11 11 11 11 11 12 12 13 13 14 14 14 15 16 17 17 17 18 17 17 17 17 16 16 16 16 15 15 15 15
5 5 5 6 7 7 6 6 6 7 7 7 7 7 8 8 9 9 10 10 10 10 11 11 12 12 13 14 14 14 15 15 16 16 17 18 18 18 17 17 16 16 16 15 15 15 15 15 15
5 5 5 5 6 6 5 5 5 7 7 7 7 7 8 8 9 9 9 10 10 10 11 11 12 13 13 14 14 14 14 15 15 16 17 17 18 18 17 17 16 16 16 15 15 15 15 14 14
5 6 6 5 5 4 4 4 4 6 6 6 7 7 8 9 9 10 10 10 10 10 11 11 12 13 13 14 14 14 13 14 15 16 16 17 18 18 18 17 17 16 16 15 15 15 14 13 13
6 6 6 5 4 4 3 3 4 5 5 6 7 8 8 9 10 10 10 10 10 11 11 11 12 12 13 14 14 13 13 14 15 15 16 16 17 18 18 17 17 16 16 15 15 15 14 13 13
6 6 5 4 3 3 3 3 4 4 5 6 7 8 9 9 10 10 10 10 10 10 11 11 11 12 13 14 14 14 14 14 15 15 15 15 16 17 17 17 16 16 15 15 15 15 14 14 13
6 4 3 2 1 2 3 3 4 5 6 7 7 8 9 9 9 9 9 10 10 10 10 10 11 12 13 14 14 15 15 15 14 14 14 14 15 15 16 16 16 15 16 16 15 15 14 14 13
5 4 2 1 1 2 3 3 4 6 6 7 8 8 9 8 8 8 9 9 9 9 10 10 11 12 13 13 14 15 15 14 14 14 14 14 14 15 15 15 15 16 16 15 15 14 14 13 13
5 4 3 2 2 2 3 3 4 5 6 7 8 8 8 8 8 8 9 9 9 9 10 10 11 12 13 13 14 14 14 14 14 14 14 14 14 15 15 15 15 15 15 15 15 14 14 13 13
5 5 4 3 2 1 2 3 4 5 6 6 7 8 8 7 7 8 9 9 9 9 10 11 11 12 12 13 13 13 13 13 13 13 13 13 14 14 14 15 15 15 15 15 14 14 14 13 13
5 5 4 3 2 1 1 3 4 5 6 6 7 8 8 7 7 8 9 10 9 9 10 10 11 11 12 12 13 13 13 13 13 13 13 13 13 13 14 14 14 14 14 14 14 14 13 13 13
5 5 4 3 3 2 2 3 5 6 6 6 7 8 8 7 7 9 10 10 9 9 10 10 11 11 12 12 12 12 13 13 13 12 12 13 13 13 14 14 14 14 14 14 14 13 13 13 12